Regional Weather Roundup
Issued by NWS

Home | Current Version | Previous Version | Text Only | Print | Product List | Glossary Off
Versions: 1 2 3 4 5 6 7 8 9 10 11 12 13 14 15 16 17 18 19 20 21 22 23 24 25 26 27 28 29 30 31 32 33 34 35 36 37 38 39 40 41 42 43 44 45 46 47 48 49 50

000
ASUS43 KFSD 221210
RWRSD

WEATHER ROUNDUP FOR SOUTH DAKOTA
NATIONAL WEATHER SERVICE SIOUX FALLS SD
700 AM CDT SUN OCT 22 2017

NOTE: "FAIR" INDICATES FEW OR NO CLOUDS BELOW 12,000 FEET WITH NO
SIGNIFICANT WEATHER AND/OR OBSTRUCTIONS TO VISIBILITY.


SDZ001>005-009-010-012>017-221300-
NORTHWEST AND NORTH CENTRAL SOUTH DAKOTA

CITY           SKY/WX    TMP DP  RH WIND       PRES   REMARKS
BUFFALO          N/A     34  18  52 W8        29.82F WCI  27
MOBRIDGE       CLEAR     33  27  78 SE7       29.90S WCI  27
$$

SDZ012>016-024>037-041>051-057-063-072>074-221300-
SOUTHWEST AND SOUTH CENTRAL SOUTH DAKOTA

CITY           SKY/WX    TMP DP  RH WIND       PRES   REMARKS
RAPID CTY ARPT CLEAR     31  15  52 W5        29.96S WCI  26
PIERRE         CLEAR     36  27  69 CALM      29.96S
CUSTER         CLOUDY    32  13  45 VRB5      29.98S WCI  27
ELLSWORTH AFB  CLEAR     32  15  50 W3        29.95S
PHILIP         CLEAR     27  23  85 W3        29.99R
PINE RIDGE     CLEAR     30  18  60 W3        30.02R
SPEARFISH      FAIR      37  16  41 NE7       29.94S
WINNER         FAIR      41  27  57 SW12      30.01S
$$

SDZ004>011-016>023-039-040-221300-
NORTHEAST SOUTH DAKOTA

CITY           SKY/WX    TMP DP  RH WIND       PRES   REMARKS
ABERDEEN       CLEAR     30  28  92 SW8       29.94R WCI  22
WATERTOWN      CLEAR     36  32  85 S7        29.95R
BROOKINGS      CLEAR     36  32  85 S7        30.00R
SISSETON         N/A     43  33  68 W10       29.90R
$$

SDZ017-020-022-023-036>040-048>070-221300-
SOUTHEAST SOUTH DAKOTA

CITY           SKY/WX    TMP DP  RH WIND       PRES   REMARKS
SIOUX FALLS    CLEAR     40  34  79 SW3       30.03R
HURON          CLEAR     38  32  79 SW9       29.99R
CHAMBERLAIN    CLEAR     37  31  79 CALM      30.01S
MITCHELL       CLEAR     40  30  67 SW9       30.03R
YANKTON        CLEAR     35  33  92 NE5       30.06R
$$

ABBREVIATIONS USED IN REMARKS
   TC - TEMPERATURE IN CELSIUS
  WCI - WIND CHILL INDEX
   HX - HEAT INDEX
  VSB - VISIBILITY





USA.gov is the U.S. government's official web portal to all federal, state and local government web resources and services.